Location: *
(55.5817°S, 142.4781°W)
Time: 06:39:49
(UTC+00:00)

Blok-L - Pass Details

Date: 29 April 2025
Orbit: 715 x 35934 km, 64.0° (Epoch: 21 May)

Event Time Altitude Azimuth Distance (km) Brightness Sun altitude
Exits shadow 14:08:23 38° 216° (SW) 1,145 4.6 -23.2°
Maximum altitude 14:09:54 69° 144° (SE) 883 4.3 -22.9°
Drops below altitude 10° 14:16:48 10° 59° (ENE) 3,885 8.3 -22.0°
Sets 14:21:58 0° 56° (NE) 6,377 9.5 -21.3°
